| time (UTC) | temp F | wind direction | speed MPH | gust MPH | rain 1hr in | rain 24hr in | rain mn in | humidity % | barometer mb |
| 20260505213843 | 80 | 229 | 5.0 | 8.0 | 0.00 | 0.00 | 0.00 | 33 | 1009.0 |
| 20260505213341 | 80 | 198 | 3.0 | 7.0 | 0.00 | 0.00 | 0.00 | 33 | 1008.9 |
| 20260505212836 | 80 | 255 | 2.0 | 3.0 | 0.00 | 0.00 | 0.00 | 32 | 1009.0 |
| 20260505212333 | 80 | 286 | 2.0 | 9.0 | 0.00 | 0.00 | 0.00 | 30 | 1008.8 |
| 20260505211829 | 80 | 258 | 5.0 | 10.0 | 0.00 | 0.00 | 0.00 | 30 | 1008.9 |
| 20260505211328 | 81 | 269 | 5.0 | 8.0 | 0.00 | 0.00 | 0.00 | 31 | 1009.0 |
| 20260505210824 | 81 | 257 | 4.0 | 6.0 | 0.00 | 0.00 | 0.00 | 31 | 1009.2 |
| 20260505210321 | 81 | 248 | 5.0 | 13.0 | 0.00 | 0.00 | 0.00 | 30 | 1009.1 |
| 20260505205817 | 81 | 242 | 4.0 | 8.0 | 0.00 | 0.00 | 0.00 | 31 | 1009.1 |
| 20260505205316 | 81 | 273 | 5.0 | 11.0 | 0.00 | 0.00 | 0.00 | 29 | 1009.2 |
| 20260505204812 | 82 | 245 | 8.0 | 10.0 | 0.00 | 0.00 | 0.00 | 29 | 1009.2 |
| 20260505204310 | 82 | 280 | 4.0 | 9.0 | 0.00 | 0.00 | 0.00 | 29 | 1009.2 |
| 20260505203807 | 82 | 244 | 5.0 | 11.0 | 0.00 | 0.00 | 0.00 | 29 | 1009.2 |
| 20260505203304 | 82 | 230 | 4.0 | 6.0 | 0.00 | 0.00 | 0.00 | 29 | 1008.9 |
| 20260505202800 | 82 | 269 | 4.0 | 6.0 | 0.00 | 0.00 | 0.00 | 30 | 1008.9 |
| 20260505202256 | 82 | 298 | 4.0 | 8.0 | 0.00 | 0.00 | 0.00 | 29 | 1008.8 |
| 20260505201753 | 82 | 167 | 4.0 | 6.0 | 0.00 | 0.00 | 0.00 | 30 | 1008.9 |
| 20260505201250 | 82 | 257 | 11.0 | 13.0 | 0.00 | 0.00 | 0.00 | 29 | 1008.9 |
| 20260505200749 | 83 | 246 | 4.0 | 8.0 | 0.00 | 0.00 | 0.00 | 28 | 1009.2 |
| 20260505200246 | 83 | 272 | 6.0 | 9.0 | 0.00 | 0.00 | 0.00 | 29 | 1008.9 |
| 20260505195741 | 85 | 245 | 4.0 | 7.0 | 0.00 | 0.00 | 0.00 | 25 | 1009.0 |
| 20260505195239 | 84 | 173 | 4.0 | 7.0 | 0.00 | 0.00 | 0.00 | 28 | 1008.9 |
| 20260505194736 | 83 | 281 | 4.0 | 7.0 | 0.00 | 0.00 | 0.00 | 32 | 1008.9 |
| 20260505194232 | 83 | 274 | 5.0 | 10.0 | 0.00 | 0.00 | 0.00 | 30 | 1009.1 |
| 20260505193728 | 84 | 248 | 6.0 | 7.0 | 0.00 | 0.00 | 0.00 | 30 | 1009.3 |
| 20260505193225 | 83 | 181 | 6.0 | 11.0 | 0.00 | 0.00 | 0.00 | 26 | 1009.1 |
| 20260505192724 | 83 | 234 | 4.0 | 6.0 | 0.00 | 0.00 | 0.00 | 26 | 1009.2 |
| 20260505192221 | 84 | 156 | 6.0 | 8.0 | 0.00 | 0.00 | 0.00 | 27 | 1009.4 |
| 20260505191719 | 84 | 233 | 4.0 | 14.0 | 0.00 | 0.00 | 0.00 | 27 | 1009.3 |
| 20260505191218 | 84 | 172 | 9.0 | 10.0 | 0.00 | 0.00 | 0.00 | 26 | 1009.5 |
| 20260505190713 | 85 | 134 | 9.0 | 11.0 | 0.00 | 0.00 | 0.00 | 25 | 1009.5 |
| 20260505190213 | 84 | 240 | 8.0 | 14.0 | 0.00 | 0.00 | 0.00 | 30 | 1009.3 |
| 20260505185710 | 85 | 270 | 9.0 | 13.0 | 0.00 | 0.00 | 0.00 | 29 | 1009.9 |
| 20260505185206 | 84 | 261 | 3.0 | 7.0 | 0.00 | 0.00 | 0.00 | 29 | 1009.5 |
| 20260505184702 | 82 | 202 | 4.0 | 10.0 | 0.00 | 0.00 | 0.00 | 31 | 1009.7 |
| 20260505184200 | 84 | 205 | 12.0 | 14.0 | 0.00 | 0.00 | 0.00 | 29 | 1010.0 |
| 20260505183656 | 84 | 221 | 6.0 | 10.0 | 0.00 | 0.00 | 0.00 | 31 | 1010.1 |
| 20260505183154 | 84 | 248 | 2.0 | 4.0 | 0.00 | 0.00 | 0.00 | 32 | 1010.2 |
| 20260505182650 | 82 | 257 | 5.0 | 8.0 | 0.00 | 0.00 | 0.00 | 30 | 1010.1 |
| 20260505182148 | 82 | 179 | 6.0 | 8.0 | 0.00 | 0.00 | 0.00 | 31 | 1010.3 |
| 20260505181644 | 82 | 177 | 3.0 | 7.0 | 0.00 | 0.00 | 0.00 | 33 | 1010.4 |
| 20260505181141 | 82 | 278 | 4.0 | 4.0 | 0.00 | 0.00 | 0.00 | 31 | 1010.4 |
| 20260505180637 | 81 | 250 | 3.0 | 8.0 | 0.00 | 0.00 | 0.00 | 32 | 1010.6 |
| 20260505180135 | 82 | 165 | 8.0 | 10.0 | 0.00 | 0.00 | 0.00 | 32 | 1010.5 |
| 20260505175631 | 82 | 210 | 11.0 | 17.0 | 0.00 | 0.00 | 0.00 | 32 | 1010.4 |
| 20260505175127 | 83 | 134 | 3.0 | 7.0 | 0.00 | 0.00 | 0.00 | 30 | 1010.6 |
| 20260505174624 | 82 | 179 | 8.0 | 10.0 | 0.00 | 0.00 | 0.00 | 30 | 1010.8 |
| 20260505174120 | 83 | 132 | 4.0 | 13.0 | 0.00 | 0.00 | 0.00 | 34 | 1010.8 |
| 20260505173617 | 82 | 210 | 4.0 | 9.0 | 0.00 | 0.00 | 0.00 | 34 | 1010.8 |
| 20260505173114 | 81 | 169 | 4.0 | 8.0 | 0.00 | 0.00 | 0.00 | 37 | 1010.8 |
| 20260505172611 | 80 | 240 | 4.0 | 8.0 | 0.00 | 0.00 | 0.00 | 36 | 1011.1 |
| 20260505172108 | 81 | 232 | 8.0 | 10.0 | 0.00 | 0.00 | 0.00 | 33 | 1011.2 |
| 20260505171602 | 80 | 256 | 6.0 | 11.0 | 0.00 | 0.00 | 0.00 | 34 | 1011.0 |
| 20260505171100 | 81 | 218 | 4.0 | 7.0 | 0.00 | 0.00 | 0.00 | 32 | 1011.1 |
| 20260505170556 | 82 | 272 | 8.0 | 10.0 | 0.00 | 0.00 | 0.00 | 34 | 1011.2 |
| 20260505170053 | 80 | 244 | 7.0 | 10.0 | 0.00 | 0.00 | 0.00 | 33 | 1011.1 |
| 20260505165548 | 81 | 216 | 5.0 | 11.0 | 0.00 | 0.00 | 0.00 | 33 | 1011.2 |
| 20260505165044 | 81 | 207 | 9.0 | 11.0 | 0.00 | 0.00 | 0.00 | 33 | 1011.4 |
| 20260505164540 | 81 | 220 | 7.0 | 16.0 | 0.00 | 0.00 | 0.00 | 33 | 1011.5 |
| 20260505164038 | 80 | 261 | 9.0 | 11.0 | 0.00 | 0.00 | 0.00 | 34 | 1011.8 |
| 20260505163537 | 80 | 270 | 3.0 | 9.0 | 0.00 | 0.00 | 0.00 | 39 | 1011.7 |
| 20260505163033 | 79 | 217 | 11.0 | 15.0 | 0.00 | 0.00 | 0.00 | 35 | 1012.0 |
| 20260505162526 | 78 | 199 | 9.0 | 16.0 | 0.00 | 0.00 | 0.00 | 35 | 1012.0 |
| 20260505162023 | 79 | 150 | 5.0 | 10.0 | 0.00 | 0.00 | 0.00 | 35 | 1012.2 |
| 20260505161520 | 79 | 258 | 5.0 | 9.0 | 0.00 | 0.00 | 0.00 | 36 | 1012.4 |
| 20260505161017 | 79 | 304 | 9.0 | 14.0 | 0.00 | 0.00 | 0.00 | 38 | 1012.1 |
| 20260505160515 | 79 | 204 | 7.0 | 10.0 | 0.00 | 0.00 | 0.00 | 36 | 1012.2 |
| 20260505152951 | 78 | 250 | 7.0 | 13.0 | 0.00 | 0.00 | 0.00 | 38 | 1012.1 |
| 20260505152449 | 78 | 276 | 8.0 | 11.0 | 0.00 | 0.00 | 0.00 | 37 | 1012.3 |
| 20260505151943 | 78 | 237 | 6.0 | 15.0 | 0.00 | 0.00 | 0.00 | 36 | 1012.4 |
| 20260505151439 | 77 | 141 | 14.0 | 18.0 | 0.00 | 0.00 | 0.00 | 37 | 1012.0 |
| 20260505150937 | 76 | 212 | 7.0 | 11.0 | 0.00 | 0.00 | 0.00 | 39 | 1012.2 |
| 20260505150433 | 76 | 263 | 10.0 | 13.0 | 0.00 | 0.00 | 0.00 | 40 | 1012.3 |